Simultaneous Nadir Overpasses (SNOs) Predictions

Prediction of SNOs between METOP-A and NOAA-19 Satellite Orbit:

Table of predicted SNOs for the next 14.0 days since TLE Epoch: 2/12/2016
Index Date (METOP-A) Time (METOP-A) Lat,Lon (METOP-A) SZA (METOP-A ) Date (NOAA-19) Time (NOAA-19) Lat,Lon (NOAA-19) SZA (NOAA-19 ) Distance(km) Time Diff (sec)
1 02/13/2016 23:04:10 75.78,-166.82 89.03 02/13/2016 23:03:04 75.77,-166.90 89.03 2.21 66
2 02/13/2016 23:54:52 -75.75, 0.41 91.02 02/13/2016 23:54:00 -75.76, 0.40 91.00 1.68 52
3 02/14/2016 00:45:32 75.76, 167.79 88.99 02/14/2016 00:45:06 75.76, 167.63 88.99 4.18 26
4 02/14/2016 01:36:14 -75.73, -24.98 91.05 02/14/2016 01:36:01 -75.71, -24.92 91.08 3.26 13
5 02/14/2016 02:26:55 75.70, 142.24 88.91 02/14/2016 02:27:07 75.70, 142.32 88.91 2.07 12
6 02/14/2016 03:17:36 -75.71, -50.37 91.09 02/14/2016 03:18:03 -75.70, -50.39 91.11 2.20 27
7 02/14/2016 04:08:17 75.68, 116.85 88.87 02/14/2016 04:09:09 75.69, 116.85 88.88 1.02 52
8 02/14/2016 04:58:58 -75.70, -75.77 91.13 02/14/2016 05:00:05 -75.68, -75.87 91.15 3.13 67
9 02/24/2016 13:18:44 -76.24, 161.06 94.29 02/24/2016 13:17:37 -76.26, 157.97 94.21 81.75 67
10 02/24/2016 14:09:34 75.77, -33.18 85.26 02/24/2016 14:08:33 75.77, -33.04 85.25 3.91 61
11 02/24/2016 15:00:16 -75.76, 134.11 94.77 02/24/2016 14:59:28 -75.76, 134.26 94.77 4.00 48
12 02/24/2016 15:50:56 75.75, -58.57 85.22 02/24/2016 15:50:35 75.76, -58.51 85.22 1.68 21
13 02/24/2016 16:41:38 -75.74, 108.72 94.81 02/24/2016 16:41:30 -75.75, 108.78 94.81 1.85 8
14 02/24/2016 17:32:18 75.74, -83.97 85.17 02/24/2016 17:32:37 75.75, -83.99 85.18 1.09 19
15 02/24/2016 18:23:00 -75.73, 83.33 94.85 02/24/2016 18:23:32 -75.74, 83.31 94.84 1.41 32
16 02/24/2016 19:13:40 75.72,-109.36 85.13 02/24/2016 19:14:39 75.74,-109.46 85.15 3.24 59
17 02/24/2016 20:04:22 -75.71, 57.93 94.90 02/24/2016 20:05:33 -75.68, 57.99 94.93 3.29 71




NCC Satellite Simultaneous Nadir Overpasses (SNOs) Prediction Service
